| time (UTC) | temp F | wind direction | speed knots | gust knots | rain 1hr in | rain 24hr in | rain mn in | humidity % | barometer mb |
| 20260503220036 | 82 | 73 | 3.5 | 9.6 | 0.00 | 0.00 | 0.00 | 28 | 1012.5 |
| 20260503213034 | 82 | 38 | 3.5 | 7.8 | 0.00 | 0.00 | 0.00 | 28 | 1012.8 |
| 20260503204535 | 82 | 37 | 4.3 | 10.4 | 0.00 | 0.00 | 0.00 | 27 | 1013.5 |
| 20260503203032 | 82 | 19 | 2.6 | 7.0 | 0.00 | 0.00 | 0.00 | 27 | 1013.6 |
| 20260503201536 | 81 | 82 | 2.6 | 8.7 | 0.00 | 0.00 | 0.00 | 27 | 1013.8 |
| 20260503200142 | 80 | 70 | 4.3 | 17.4 | 0.00 | 0.00 | 0.00 | 28 | 1013.9 |
| 20260503194535 | 80 | 68 | 5.2 | 13.9 | 0.00 | 0.00 | 0.00 | 28 | 1014.1 |
| 20260503193037 | 80 | 92 | 6.1 | 12.2 | 0.00 | 0.00 | 0.00 | 29 | 1014.1 |
| 20260503191643 | 80 | 9 | 3.5 | 9.6 | 0.00 | 0.00 | 0.00 | 29 | 1014.3 |
| 20260503190035 | 80 | 22 | 3.5 | 9.6 | 0.00 | 0.00 | 0.00 | 31 | 1014.3 |
| 20260503184535 | 79 | 22 | 3.5 | 8.7 | 0.00 | 0.00 | 0.00 | 34 | 1014.4 |
| 20260503183034 | 77 | 355 | 5.2 | 12.2 | 0.00 | 0.00 | 0.00 | 40 | 1014.5 |
| 20260503181535 | 75 | 296 | 4.3 | 7.0 | 0.00 | 0.00 | 0.00 | 44 | 1014.7 |
| 20260503174536 | 72 | 312 | 3.5 | 6.1 | 0.00 | 0.00 | 0.00 | 48 | 1015.0 |
| 20260503173037 | 71 | 342 | 2.6 | 6.1 | 0.00 | 0.00 | 0.00 | 49 | 1015.2 |
| 20260503171534 | 70 | 345 | 0.9 | 3.5 | 0.00 | 0.00 | 0.00 | 50 | 1015.3 |
| 20260503160142 | 65 | 14 | 0.0 | 1.7 | 0.00 | 0.00 | 0.00 | 56 | 1015.5 |
| 20260503110141 | 51 | 158 | 3.5 | 3.5 | 0.00 | 0.00 | 0.00 | 76 | 1015.3 |
| 20260503081533 | 54 | 157 | 2.6 | 4.3 | 0.00 | 0.00 | 0.00 | 70 | 1015.3 |
| 20260503071533 | 55 | 151 | 2.6 | 4.3 | 0.00 | 0.00 | 0.00 | 73 | 1015.3 |
| 20260503054609 | 60 | 157 | 1.7 | 3.5 | 0.00 | 0.00 | 0.00 | 63 | 1015.2 |
| 20260503053035 | 62 | 124 | 0.9 | 2.6 | 0.00 | 0.00 | 0.00 | 59 | 1015.1 |
| 20260503051644 | 61 | 92 | 0.0 | 1.7 | 0.00 | 0.00 | 0.00 | 60 | 1015.1 |
| 20260503050148 | 63 | 90 | 0.0 | 2.6 | 0.00 | 0.00 | 0.00 | 56 | 1015.0 |
| 20260503044535 | 64 | 122 | 2.6 | 4.3 | 0.00 | 0.00 | 0.00 | 56 | 1015.0 |
| 20260503043034 | 65 | 136 | 3.5 | 5.2 | 0.00 | 0.00 | 0.00 | 54 | 1014.9 |
| 20260503041532 | 66 | 128 | 3.5 | 6.1 | 0.00 | 0.00 | 0.00 | 53 | 1014.8 |
| 20260503040043 | 66 | 137 | 3.5 | 6.1 | 0.00 | 0.00 | 0.00 | 52 | 1014.6 |
| 20260503034534 | 67 | 136 | 4.3 | 6.1 | 0.00 | 0.00 | 0.00 | 52 | 1014.4 |
| 20260503033032 | 68 | 135 | 3.5 | 5.2 | 0.00 | 0.00 | 0.00 | 52 | 1014.2 |
| 20260503031532 | 68 | 142 | 4.3 | 7.0 | 0.00 | 0.00 | 0.00 | 52 | 1013.9 |
| 20260503030144 | 68 | 136 | 3.5 | 5.2 | 0.00 | 0.00 | 0.00 | 53 | 1013.7 |
| 20260503024534 | 69 | 136 | 2.6 | 3.5 | 0.00 | 0.00 | 0.00 | 53 | 1013.5 |
| 20260503023032 | 71 | 134 | 1.7 | 3.5 | 0.00 | 0.00 | 0.00 | 50 | 1013.4 |
| 20260503021643 | 72 | 173 | 1.7 | 3.5 | 0.00 | 0.00 | 0.00 | 46 | 1013.4 |
| 20260503020038 | 74 | 173 | 0.9 | 3.5 | 0.00 | 0.00 | 0.00 | 42 | 1013.3 |
| 20260503014534 | 75 | 83 | 0.0 | 2.6 | 0.00 | 0.00 | 0.00 | 38 | 1013.2 |
| 20260503011537 | 76 | 26 | 1.7 | 4.3 | 0.00 | 0.00 | 0.00 | 36 | 1013.3 |
| 20260503010037 | 77 | 83 | 0.9 | 5.2 | 0.00 | 0.00 | 0.00 | 35 | 1013.3 |
| 20260503004640 | 77 | 69 | 2.6 | 7.0 | 0.00 | 0.00 | 0.00 | 34 | 1013.3 |
| 20260503003030 | 76 | 79 | 0.0 | 7.0 | 0.00 | 0.00 | 0.00 | 34 | 1013.4 |
| 20260503001536 | 77 | 97 | 3.5 | 7.0 | 0.00 | 0.00 | 0.00 | 34 | 1013.3 |
| 20260503000034 | 77 | 87 | 4.3 | 13.0 | 0.00 | 0.00 | 0.00 | 34 | 1013.4 |
| 20260502234535 | 77 | 74 | 4.3 | 12.2 | 0.00 | 0.00 | 0.00 | 34 | 1013.5 |
| 20260502233037 | 77 | 53 | 2.6 | 8.7 | 0.00 | 0.00 | 0.00 | 33 | 1013.6 |
| 20260502230044 | 78 | 42 | 3.5 | 12.2 | 0.00 | 0.00 | 0.00 | 33 | 1014.0 |
| 20260502224531 | 78 | 26 | 4.3 | 10.4 | 0.00 | 0.00 | 0.00 | 33 | 1014.1 |
| 20260502223036 | 78 | 29 | 3.5 | 10.4 | 0.00 | 0.00 | 0.00 | 32 | 1014.3 |
| 20260502221534 | 79 | 18 | 4.3 | 10.4 | 0.00 | 0.00 | 0.00 | 33 | 1014.3 |